Location: Montclair
(37.8322°N, 122.2092°W)
Time: 14:13:12
(UTC+00:00)

Cosmos 1190 Rocket - Pass Details

Date: 08 September 2024
Orbit: 753 x 777 km, 74.1° (Epoch: 08 October)

Event Time Altitude Azimuth Distance (km) Brightness Sun altitude
Exits shadow 12:15:35 19° 200° (SSW) 1,736 5.5 -17.9°
Maximum altitude 12:19:20 84° 288° (WNW) 763 3.9 -17.2°
Drops below altitude 10° 12:24:31 10° 17° (NNE) 2,284 7.0 -16.3°
Sets 12:26:54 0° 18° (NNE) 3,214 7.8 -15.8°
